| time (UTC) | temp F | wind direction | speed MPH | gust MPH | rain 1hr in | rain 24hr in | rain mn in | humidity % | barometer mb |
| 20260504035533 | 44 | 0 | 0.0 | 2.0 | 0.00 | 0.00 | 0.00 | 76 | 1018.1 |
| 20260504035032 | 44 | 311 | 0.0 | 2.0 | 0.00 | 0.00 | 0.00 | 75 | 1018.0 |
| 20260504034544 | 44 | 0 | 0.0 | 1.0 | 0.00 | 0.00 | 0.00 | 75 | 1018.1 |
| 20260504034035 | 44 | 0 | 0.0 | 2.0 | 0.00 | 0.00 | 0.00 | 74 | 1017.9 |
| 20260504033534 | 44 | 311 | 0.0 | 2.0 | 0.00 | 0.00 | 0.00 | 74 | 1018.0 |
| 20260504033053 | 44 | 311 | 0.0 | 2.0 | 0.00 | 0.00 | 0.00 | 74 | 1017.9 |
| 20260504032533 | 45 | 0 | 1.0 | 2.0 | 0.00 | 0.00 | 0.00 | 74 | 1017.9 |
| 20260504032034 | 45 | 0 | 0.0 | 2.0 | 0.00 | 0.00 | 0.00 | 72 | 1018.0 |
| 20260504031548 | 45 | 0 | 0.0 | 2.0 | 0.00 | 0.00 | 0.00 | 73 | 1017.9 |
| 20260504031034 | 45 | 311 | 0.0 | 2.0 | 0.00 | 0.00 | 0.00 | 74 | 1017.9 |
| 20260504030532 | 45 | 311 | 0.0 | 2.0 | 0.00 | 0.00 | 0.00 | 74 | 1017.8 |
| 20260504030049 | 45 | 311 | 0.0 | 2.0 | 0.00 | 0.00 | 0.00 | 74 | 1017.9 |
| 20260504025533 | 45 | 0 | 0.0 | 3.0 | 0.00 | 0.00 | 0.00 | 73 | 1018.0 |
| 20260504025034 | 46 | 0 | 0.0 | 3.0 | 0.00 | 0.00 | 0.00 | 73 | 1017.9 |
| 20260504024556 | 46 | 0 | 1.0 | 2.0 | 0.00 | 0.00 | 0.00 | 73 | 1018.0 |
| 20260504024033 | 46 | 0 | 0.0 | 2.0 | 0.00 | 0.00 | 0.00 | 72 | 1018.1 |
| 20260504023533 | 46 | 0 | 1.0 | 2.0 | 0.00 | 0.00 | 0.00 | 73 | 1018.0 |
| 20260504023044 | 46 | 0 | 0.0 | 1.0 | 0.00 | 0.00 | 0.00 | 72 | 1018.0 |
| 20260504022534 | 46 | 310 | 0.0 | 2.0 | 0.00 | 0.00 | 0.00 | 72 | 1018.0 |
| 20260504022033 | 47 | 0 | 0.0 | 2.0 | 0.00 | 0.00 | 0.00 | 70 | 1017.9 |
| 20260504021552 | 47 | 310 | 0.0 | 2.0 | 0.00 | 0.00 | 0.00 | 71 | 1017.8 |
| 20260504021032 | 47 | 310 | 0.0 | 2.0 | 0.00 | 0.00 | 0.00 | 71 | 1017.8 |
| 20260504020532 | 47 | 0 | 0.0 | 1.0 | 0.00 | 0.00 | 0.00 | 70 | 1017.6 |
| 20260504020049 | 47 | 0 | 0.0 | 2.0 | 0.00 | 0.00 | 0.00 | 70 | 1017.5 |
| 20260504015533 | 48 | 310 | 0.0 | 2.0 | 0.00 | 0.00 | 0.00 | 70 | 1017.5 |
| 20260504015032 | 48 | 310 | 0.0 | 2.0 | 0.00 | 0.00 | 0.00 | 69 | 1017.5 |
| 20260504014545 | 48 | 0 | 0.0 | 0.0 | 0.00 | 0.00 | 0.00 | 68 | 1017.5 |
| 20260504014034 | 48 | 0 | 0.0 | 0.0 | 0.00 | 0.00 | 0.00 | 69 | 1017.5 |
| 20260504013534 | 48 | 0 | 0.0 | 1.0 | 0.00 | 0.00 | 0.00 | 68 | 1017.5 |
| 20260504013049 | 48 | 0 | 0.0 | 1.0 | 0.00 | 0.00 | 0.00 | 68 | 1017.5 |
| 20260504012533 | 49 | 0 | 0.0 | 2.0 | 0.00 | 0.00 | 0.00 | 66 | 1017.4 |
| 20260504012032 | 49 | 0 | 0.0 | 2.0 | 0.00 | 0.00 | 0.00 | 65 | 1017.5 |
| 20260504011547 | 50 | 309 | 0.0 | 3.0 | 0.00 | 0.00 | 0.00 | 64 | 1017.4 |
| 20260504011032 | 50 | 309 | 1.0 | 3.0 | 0.00 | 0.00 | 0.00 | 63 | 1017.4 |
| 20260504010532 | 50 | 270 | 0.0 | 2.0 | 0.00 | 0.00 | 0.00 | 64 | 1017.3 |
| 20260504010046 | 50 | 0 | 0.0 | 0.0 | 0.00 | 0.00 | 0.00 | 62 | 1017.3 |
| 20260504005533 | 51 | 0 | 0.0 | 0.0 | 0.00 | 0.00 | 0.00 | 61 | 1017.2 |
| 20260504005034 | 52 | 0 | 0.0 | 0.0 | 0.00 | 0.00 | 0.00 | 61 | 1017.2 |
| 20260504004559 | 53 | 0 | 0.0 | 0.0 | 0.00 | 0.00 | 0.00 | 59 | 1017.2 |
| 20260504004033 | 53 | 0 | 0.0 | 0.0 | 0.00 | 0.00 | 0.00 | 57 | 1017.0 |
| 20260504003533 | 53 | 0 | 0.0 | 0.0 | 0.00 | 0.00 | 0.00 | 56 | 1017.0 |
| 20260504003044 | 53 | 0 | 0.0 | 0.0 | 0.00 | 0.00 | 0.00 | 56 | 1017.0 |
| 20260504002532 | 54 | 0 | 0.0 | 0.0 | 0.00 | 0.00 | 0.00 | 55 | 1016.9 |
| 20260504002035 | 54 | 0 | 0.0 | 0.0 | 0.00 | 0.00 | 0.00 | 53 | 1016.9 |
| 20260504001547 | 54 | 0 | 0.0 | 0.0 | 0.00 | 0.00 | 0.00 | 54 | 1016.7 |
| 20260504001032 | 55 | 0 | 0.0 | 0.0 | 0.00 | 0.00 | 0.00 | 54 | 1017.0 |
| 20260504000533 | 56 | 0 | 0.0 | 1.0 | 0.00 | 0.00 | 0.00 | 50 | 1016.9 |
| 20260504000045 | 56 | 0 | 0.0 | 1.0 | 0.00 | 0.00 | 0.00 | 47 | 1016.8 |
| 20260503235534 | 57 | 0 | 0.0 | 1.0 | 0.00 | 0.00 | 0.00 | 50 | 1016.8 |
| 20260503235033 | 58 | 0 | 0.0 | 3.0 | 0.00 | 0.00 | 0.00 | 45 | 1016.8 |
| 20260503234546 | 58 | 261 | 0.0 | 3.0 | 0.00 | 0.00 | 0.00 | 42 | 1016.8 |
| 20260503234033 | 59 | 0 | 0.0 | 4.0 | 0.00 | 0.00 | 0.00 | 39 | 1016.8 |
| 20260503233536 | 59 | 254 | 2.0 | 9.0 | 0.00 | 0.00 | 0.00 | 38 | 1016.7 |
| 20260503233045 | 60 | 240 | 2.0 | 9.0 | 0.00 | 0.00 | 0.00 | 37 | 1016.6 |
| 20260503232534 | 60 | 263 | 3.0 | 9.0 | 0.00 | 0.00 | 0.00 | 36 | 1016.7 |
| 20260503232032 | 60 | 261 | 3.0 | 8.0 | 0.00 | 0.00 | 0.00 | 36 | 1016.6 |
| 20260503231555 | 60 | 264 | 3.0 | 8.0 | 0.00 | 0.00 | 0.00 | 35 | 1016.6 |
| 20260503231033 | 61 | 254 | 3.0 | 8.0 | 0.00 | 0.00 | 0.00 | 36 | 1016.7 |
| 20260503230533 | 61 | 266 | 1.0 | 8.0 | 0.00 | 0.00 | 0.00 | 37 | 1016.6 |
| 20260503230045 | 61 | 254 | 3.0 | 9.0 | 0.00 | 0.00 | 0.00 | 36 | 1016.7 |
| 20260503225532 | 61 | 267 | 3.0 | 9.0 | 0.00 | 0.00 | 0.00 | 35 | 1016.7 |
| 20260503225033 | 62 | 251 | 2.0 | 7.0 | 0.00 | 0.00 | 0.00 | 35 | 1016.6 |
| 20260503224542 | 62 | 263 | 2.0 | 10.0 | 0.00 | 0.00 | 0.00 | 33 | 1016.7 |
| 20260503224033 | 62 | 255 | 3.0 | 10.0 | 0.00 | 0.00 | 0.00 | 32 | 1016.7 |
| 20260503223533 | 62 | 250 | 2.0 | 12.0 | 0.00 | 0.00 | 0.00 | 33 | 1016.6 |
| 20260503223041 | 62 | 261 | 2.0 | 12.0 | 0.00 | 0.00 | 0.00 | 31 | 1016.6 |
| 20260503222532 | 63 | 252 | 4.0 | 12.0 | 0.00 | 0.00 | 0.00 | 30 | 1016.7 |
| 20260503222034 | 63 | 257 | 2.0 | 9.0 | 0.00 | 0.00 | 0.00 | 31 | 1016.6 |
| 20260503221552 | 63 | 238 | 3.0 | 9.0 | 0.00 | 0.00 | 0.00 | 33 | 1016.6 |
| 20260503221034 | 63 | 260 | 2.0 | 9.0 | 0.00 | 0.00 | 0.00 | 33 | 1016.7 |
| 20260503220533 | 63 | 258 | 3.0 | 9.0 | 0.00 | 0.00 | 0.00 | 33 | 1016.7 |
| 20260503220046 | 63 | 256 | 2.0 | 9.0 | 0.00 | 0.00 | 0.00 | 34 | 1016.7 |
| 20260503215534 | 63 | 261 | 2.0 | 9.0 | 0.00 | 0.00 | 0.00 | 32 | 1016.9 |
| 20260503215032 | 63 | 257 | 2.0 | 9.0 | 0.00 | 0.00 | 0.00 | 30 | 1016.8 |
| 20260503214545 | 64 | 251 | 3.0 | 9.0 | 0.00 | 0.00 | 0.00 | 31 | 1016.8 |
| 20260503214032 | 64 | 260 | 4.0 | 9.0 | 0.00 | 0.00 | 0.00 | 30 | 1016.8 |
| 20260503213532 | 64 | 0 | 2.0 | 13.0 | 0.00 | 0.00 | 0.00 | 29 | 1016.8 |
| 20260503213053 | 63 | 246 | 3.0 | 13.0 | 0.00 | 0.00 | 0.00 | 28 | 1016.9 |
| 20260503212535 | 64 | 242 | 4.0 | 11.0 | 0.00 | 0.00 | 0.00 | 30 | 1016.8 |
| 20260503212033 | 64 | 261 | 4.0 | 11.0 | 0.00 | 0.00 | 0.00 | 29 | 1017.0 |
| 20260503211602 | 64 | 279 | 3.0 | 10.0 | 0.00 | 0.00 | 0.00 | 28 | 1017.0 |
| 20260503211033 | 64 | 265 | 3.0 | 10.0 | 0.00 | 0.00 | 0.00 | 28 | 1017.0 |
| 20260503210533 | 64 | 257 | 3.0 | 10.0 | 0.00 | 0.00 | 0.00 | 29 | 1017.0 |
| 20260503210047 | 64 | 247 | 2.0 | 10.0 | 0.00 | 0.00 | 0.00 | 28 | 1017.1 |
| 20260503205533 | 64 | 259 | 3.0 | 11.0 | 0.00 | 0.00 | 0.00 | 25 | 1017.1 |
| 20260503205033 | 64 | 268 | 2.0 | 11.0 | 0.00 | 0.00 | 0.00 | 26 | 1017.2 |
| 20260503204547 | 63 | 247 | 3.0 | 15.0 | 0.00 | 0.00 | 0.00 | 27 | 1017.2 |
| 20260503204032 | 63 | 248 | 4.0 | 15.0 | 0.00 | 0.00 | 0.00 | 27 | 1017.3 |
| 20260503203536 | 63 | 267 | 4.0 | 13.0 | 0.00 | 0.00 | 0.00 | 25 | 1017.3 |
| 20260503203045 | 63 | 263 | 4.0 | 13.0 | 0.00 | 0.00 | 0.00 | 25 | 1017.3 |
| 20260503202532 | 63 | 246 | 5.0 | 13.0 | 0.00 | 0.00 | 0.00 | 25 | 1017.3 |
| 20260503202037 | 63 | 251 | 3.0 | 14.0 | 0.00 | 0.00 | 0.00 | 27 | 1017.4 |
| 20260503201541 | 63 | 251 | 5.0 | 14.0 | 0.00 | 0.00 | 0.00 | 28 | 1017.5 |
| 20260503201034 | 63 | 248 | 2.0 | 11.0 | 0.00 | 0.00 | 0.00 | 28 | 1017.4 |
| 20260503200534 | 63 | 251 | 4.0 | 12.0 | 0.00 | 0.00 | 0.00 | 29 | 1017.5 |
| 20260503200041 | 63 | 272 | 6.0 | 12.0 | 0.00 | 0.00 | 0.00 | 28 | 1017.5 |
| 20260503195533 | 63 | 271 | 5.0 | 11.0 | 0.00 | 0.00 | 0.00 | 29 | 1017.6 |
| 20260503195031 | 64 | 252 | 4.0 | 11.0 | 0.00 | 0.00 | 0.00 | 29 | 1017.8 |
| 20260503194549 | 64 | 270 | 2.0 | 9.0 | 0.00 | 0.00 | 0.00 | 32 | 1017.9 |
| 20260503194033 | 64 | 267 | 3.0 | 11.0 | 0.00 | 0.00 | 0.00 | 32 | 1018.1 |
| 20260503193533 | 63 | 252 | 3.0 | 11.0 | 0.00 | 0.00 | 0.00 | 32 | 1018.2 |
| 20260503193051 | 63 | 276 | 2.0 | 11.0 | 0.00 | 0.00 | 0.00 | 36 | 1018.2 |
| 20260503192533 | 63 | 263 | 5.0 | 11.0 | 0.00 | 0.00 | 0.00 | 34 | 1018.2 |
| 20260503192032 | 63 | 246 | 5.0 | 10.0 | 0.00 | 0.00 | 0.00 | 34 | 1018.3 |
| 20260503191545 | 63 | 251 | 2.0 | 10.0 | 0.00 | 0.00 | 0.00 | 38 | 1018.3 |
| 20260503191033 | 63 | 251 | 3.0 | 10.0 | 0.00 | 0.00 | 0.00 | 37 | 1018.3 |
| 20260503190532 | 63 | 246 | 3.0 | 9.0 | 0.00 | 0.00 | 0.00 | 38 | 1018.5 |
| 20260503190050 | 62 | 263 | 1.0 | 10.0 | 0.00 | 0.00 | 0.00 | 38 | 1018.5 |
| 20260503185535 | 62 | 269 | 3.0 | 10.0 | 0.00 | 0.00 | 0.00 | 38 | 1018.6 |
| 20260503185038 | 62 | 251 | 5.0 | 10.0 | 0.00 | 0.00 | 0.00 | 41 | 1018.6 |
| 20260503184601 | 63 | 152 | 1.0 | 6.0 | 0.00 | 0.00 | 0.00 | 38 | 1018.6 |
| 20260503184036 | 62 | 252 | 1.0 | 12.0 | 0.00 | 0.00 | 0.00 | 40 | 1018.7 |
| 20260503183535 | 62 | 246 | 4.0 | 13.0 | 0.00 | 0.00 | 0.00 | 43 | 1018.7 |
| 20260503183047 | 62 | 263 | 3.0 | 13.0 | 0.00 | 0.00 | 0.00 | 43 | 1018.7 |
| 20260503182543 | 62 | 277 | 2.0 | 12.0 | 0.00 | 0.00 | 0.00 | 43 | 1018.6 |
| 20260503182039 | 62 | 259 | 3.0 | 11.0 | 0.00 | 0.00 | 0.00 | 45 | 1018.8 |
| 20260503181552 | 62 | 247 | 1.0 | 7.0 | 0.00 | 0.00 | 0.00 | 48 | 1018.9 |
| 20260503181036 | 61 | 262 | 0.0 | 9.0 | 0.00 | 0.00 | 0.00 | 46 | 1018.9 |
| 20260503180536 | 61 | 257 | 4.0 | 9.0 | 0.00 | 0.00 | 0.00 | 47 | 1018.8 |
| 20260503180045 | 62 | 259 | 1.0 | 7.0 | 0.00 | 0.00 | 0.00 | 48 | 1018.9 |
| 20260503175536 | 61 | 334 | 0.0 | 10.0 | 0.00 | 0.00 | 0.00 | 51 | 1018.9 |
| 20260503175035 | 60 | 279 | 5.0 | 10.0 | 0.00 | 0.00 | 0.00 | 46 | 1019.0 |
| 20260503174604 | 61 | 259 | 2.0 | 9.0 | 0.00 | 0.00 | 0.00 | 47 | 1018.9 |
| 20260503174034 | 61 | 248 | 0.0 | 7.0 | 0.00 | 0.00 | 0.00 | 48 | 1018.9 |
| 20260503173535 | 61 | 0 | 2.0 | 7.0 | 0.00 | 0.00 | 0.00 | 52 | 1019.1 |
| 20260503173048 | 60 | 175 | 1.0 | 9.0 | 0.00 | 0.00 | 0.00 | 49 | 1019.3 |
| 20260503172536 | 59 | 144 | 3.0 | 9.0 | 0.00 | 0.00 | 0.00 | 48 | 1019.4 |
| 20260503172035 | 60 | 244 | 1.0 | 8.0 | 0.00 | 0.00 | 0.00 | 48 | 1019.4 |
| 20260503171546 | 60 | 240 | 2.0 | 8.0 | 0.00 | 0.00 | 0.00 | 49 | 1019.4 |
| 20260503171036 | 59 | 283 | 1.0 | 8.0 | 0.00 | 0.00 | 0.00 | 52 | 1019.5 |
| 20260503170536 | 59 | 267 | 1.0 | 8.0 | 0.00 | 0.00 | 0.00 | 50 | 1019.5 |
| 20260503150534 | 53 | 242 | 1.0 | 4.0 | 0.00 | 0.00 | 0.00 | 57 | 1020.3 |
| 20260503131034 | 43 | 0 | 0.0 | 3.0 | 0.00 | 0.00 | 0.00 | 80 | 1020.3 |
| 20260503130534 | 43 | 0 | 0.0 | 2.0 | 0.00 | 0.00 | 0.00 | 81 | 1020.2 |
| 20260503110535 | 36 | 63 | 0.0 | 1.0 | 0.00 | 0.00 | 0.00 | 89 | 1018.8 |
| 20260503081549 | 38 | 0 | 0.0 | 0.0 | 0.00 | 0.00 | 0.00 | 86 | 1017.4 |
| 20260503081033 | 38 | 0 | 0.0 | 0.0 | 0.00 | 0.00 | 0.00 | 86 | 1017.4 |
| 20260503080536 | 38 | 0 | 0.0 | 0.0 | 0.00 | 0.00 | 0.00 | 86 | 1017.4 |
| 20260503072533 | 40 | 0 | 0.0 | 1.0 | 0.00 | 0.00 | 0.00 | 84 | 1017.2 |
| 20260503072037 | 40 | 0 | 0.0 | 2.0 | 0.00 | 0.00 | 0.00 | 84 | 1017.1 |
| 20260503071547 | 40 | 0 | 0.0 | 2.0 | 0.00 | 0.00 | 0.00 | 84 | 1017.0 |
| 20260503071034 | 40 | 63 | 0.0 | 2.0 | 0.00 | 0.00 | 0.00 | 84 | 1017.0 |
| 20260503070536 | 40 | 63 | 0.0 | 2.0 | 0.00 | 0.00 | 0.00 | 84 | 1016.8 |
| 20260503055033 | 42 | 0 | 0.0 | 1.0 | 0.00 | 0.00 | 0.00 | 82 | 1016.6 |
| 20260503054545 | 42 | 0 | 0.0 | 1.0 | 0.00 | 0.00 | 0.00 | 81 | 1016.5 |
| 20260503054034 | 42 | 0 | 0.0 | 1.0 | 0.00 | 0.00 | 0.00 | 81 | 1016.6 |
| 20260503053534 | 42 | 0 | 0.0 | 1.0 | 0.00 | 0.00 | 0.00 | 81 | 1016.6 |
| 20260503053045 | 42 | 0 | 0.0 | 1.0 | 0.00 | 0.00 | 0.00 | 82 | 1016.7 |
| 20260503052534 | 42 | 0 | 0.0 | 2.0 | 0.00 | 0.00 | 0.00 | 82 | 1016.7 |
| 20260503052034 | 42 | 63 | 0.0 | 2.0 | 0.00 | 0.00 | 0.00 | 82 | 1016.7 |
| 20260503051544 | 42 | 0 | 0.0 | 2.0 | 0.00 | 0.00 | 0.00 | 81 | 1016.6 |
| 20260503051033 | 42 | 0 | 0.0 | 2.0 | 0.00 | 0.00 | 0.00 | 81 | 1016.7 |
| 20260503050533 | 42 | 0 | 0.0 | 2.0 | 0.00 | 0.00 | 0.00 | 82 | 1016.6 |
| 20260503050044 | 42 | 63 | 0.0 | 2.0 | 0.00 | 0.00 | 0.00 | 81 | 1016.7 |
| 20260503045533 | 42 | 63 | 0.0 | 1.0 | 0.00 | 0.00 | 0.00 | 81 | 1016.7 |
| 20260503045033 | 42 | 63 | 0.0 | 1.0 | 0.00 | 0.00 | 0.00 | 81 | 1016.7 |
| 20260503044552 | 42 | 0 | 0.0 | 1.0 | 0.00 | 0.00 | 0.00 | 80 | 1016.7 |
| 20260503044033 | 42 | 64 | 0.0 | 1.0 | 0.00 | 0.00 | 0.00 | 79 | 1016.7 |
| 20260503043533 | 43 | 0 | 0.0 | 1.0 | 0.00 | 0.00 | 0.00 | 79 | 1016.7 |
| 20260503043046 | 43 | 0 | 0.0 | 1.0 | 0.00 | 0.00 | 0.00 | 79 | 1016.7 |
| 20260503042535 | 43 | 0 | 0.0 | 3.0 | 0.00 | 0.00 | 0.00 | 79 | 1016.7 |
| 20260503042035 | 43 | 0 | 0.0 | 3.0 | 0.00 | 0.00 | 0.00 | 78 | 1016.6 |
| 20260503041545 | 43 | 0 | 0.0 | 1.0 | 0.00 | 0.00 | 0.00 | 79 | 1016.7 |
| 20260503041035 | 43 | 0 | 0.0 | 1.0 | 0.00 | 0.00 | 0.00 | 79 | 1016.7 |
| 20260503040533 | 43 | 0 | 0.0 | 1.0 | 0.00 | 0.00 | 0.00 | 79 | 1016.7 |
| 20260503040046 | 43 | 0 | 0.0 | 1.0 | 0.00 | 0.00 | 0.00 | 78 | 1016.6 |